Epoch 2006 July 4.0 TT = JDT 2453920.5
T 2006 July 10.06425 TT Rudenko
q 5.4383275 (2000.0) P Q
n 0.06410714 Peri. 82.74334 -0.43702617 -0.89586955
a 6.1829883 Node 33.54094 +0.75734843 -0.41459570
e 0.1204370 Incl. 8.34192 +0.48521283 -0.15977532
P 15.4
From 74 observations 2008 Feb. 8-2021 Jan. 15, mean residual 0".5.